Warning: Javascript must be enabled to use all the features on this page!


Page Loading - Please Wait...

Click to hideNews Bulletins

Streamflow Measurements for the Nation


USGS 11313434 OLD R A QUIMBY ISLAND NR BETHEL ISLAND CA


Contra Costa County, California
Hydrologic Unit Code 18040003
Latitude  38°01'38", Longitude 121°33'52" NAD83
Output formats
HTML table with channel data
HTML table without channel data
Tab-separated data with channel data
Tab-separated data without channel data
Graph of data
Reselect output format
Meas.
Number
  Date       Time Time
Datum
Measurement
Used?
  Who Measuring
Agency
Stream
flow
(ft3/s)
Gage
Height
(ft)
GH
Change
(ft)
Meas.
Duration
(hr)
Meas.
Rated
  Control Flow
Adjust.
Code
 
7142020-01-21 16:17:18PSTYesZH,MIUSGS126006.73 Poor NONE
7132020-01-21 16:10:45PSTYesZH,MIUSGS120006.78 Poor NONE
7122020-01-21 16:03:54PSTYesZH,MIUSGS115006.83 Poor NONE
7112020-01-21 15:57:22PSTYesZH,MIUSGS108006.88 Poor NONE
7102020-01-21 15:51:09PSTYesZH,MIUSGS97006.92 Poor NONE
7092020-01-21 15:44:39PSTYesZH,MIUSGS85006.97 Poor NONE
7082020-01-21 14:30:47PSTYesZH,MIUSGS-80807.37 Poor NONE
7072020-01-21 14:24:21PSTYesZH,MIUSGS-94607.38 Poor NONE
7062020-01-21 14:15:07PSTYesZH,MIUSGS-105007.38 Poor NONE
7052020-01-21 14:08:18PSTYesZH,MIUSGS-118007.38 Poor NONE
7042020-01-21 14:02:04PSTYesZH,MIUSGS-130007.37 Poor NONE
7032020-01-21 13:55:56PSTYesZH,MIUSGS-132007.36 Poor NONE
7022020-01-21 09:58:22PSTYesZH,MIUSGS-131005.51 Poor NONE
7012020-01-21 09:51:37PSTYesZH,MIUSGS-130005.46 Poor NONE
7002020-01-21 09:44:34PSTYesZH,MIUSGS-127005.40 Poor NONE
6992020-01-21 09:37:27PSTYesZH,MIUSGS-124005.34 Poor NONE
6982020-01-21 09:30:05PSTYesZH,MIUSGS-112005.27 Poor NONE
6972020-01-21 09:23:04PSTYesZH,MIUSGS-102005.22 Poor NONE
6962020-01-08 12:21PSTYesZH,HRUSGS-158006.31 Poor NONE
6952020-01-08 12:11:59PSTYesZH,HRUSGS-165006.23 Poor NONE
6942020-01-08 12:02:40PSTYesZH,HRUSGS-173006.14 Poor NONE
6932020-01-08 11:53PSTYesZH,HRUSGS-168006.05 Poor NONE
6922020-01-08 11:44:12PSTYesZH,HRUSGS-161005.97 Poor NONE
6912020-01-08 11:35:50PSTYesZH,HRUSGS-158005.89 Poor NONE
6902019-11-26 11:39PSTYesMI/ZHUSGS-122004.80 Poor NONE
6892019-11-26 11:32:10PSTYesMI/ZHUSGS-110004.73 Poor NONE
6882019-11-26 11:25:44PSTYesMI/ZHUSGS-97204.67 Poor NONE
6872019-11-26 11:19:22PSTYesMI/ZHUSGS-82504.60 Poor NONE
6862019-11-26 11:13:12PSTYesMI/ZHUSGS-70804.54 Poor NONE
6852019-11-26 11:07:41PSTYesMI/ZHUSGS-57304.49 Poor NONE
6842019-10-01 11:40:46PSTYesMI/ZHUSGS80204.51 Poor NONE
6832019-10-01 11:34:18PSTYesMI/ZHUSGS81704.56 Poor NONE
6822019-10-01 11:19:06PSTYesMI/ZHUSGS86904.67 Poor NONE
6812019-10-01 11:13:14PSTYesMI/ZHUSGS87804.72 Poor NONE
6802019-10-01 11:06:55PSTYesMI/ZHUSGS89704.76 Poor NONE
6792019-10-01 11:00:32PSTYesMI/ZHUSGS89804.81 Poor NONE
6782019-08-01 12:16:03PSTYesZH,ACUSGS84404.00 Unspecified NONE
6772019-08-01 12:08:25PSTYesZH,ACUSGS87504.05 Unspecified NONE
6762019-08-01 12:02:08PSTYesZH,ACUSGS91804.09 Unspecified NONE
6752019-08-01 11:55:43PSTYesZH,ACUSGS93204.13 Unspecified NONE
6742019-08-01 11:48:46PSTYesZH,ACUSGS96904.18 Unspecified NONE
6732019-08-01 11:41:52PSTYesZH,ACUSGS97704.23 Unspecified NONE
6722019-06-04 11:03:32PSTYesZH,ACUSGS145005.15 Unspecified NONE
6712019-06-04 10:54:44PSTYesZH,ACUSGS145005.22 Unspecified NONE
6702019-06-04 10:47:28PSTYesZH,ACUSGS143005.28 Unspecified NONE
6692019-06-04 10:40:01PSTYesZH,ACUSGS142005.34 Unspecified NONE
6682019-06-04 10:34:28PSTYesZH,ACUSGS143005.39 Unspecified NONE
6672019-06-04 10:29:07PSTYesZH,ACUSGS144005.44 Good NONE
6662019-04-17 09:38:09PSTYesMI/ZHUSGS12500 4.78 Unspecified NONE
6652019-04-17 09:27:51PSTYesMI/ZHUSGS127004.83 Unspecified NONE
6642019-04-17 09:17:39PSTYesMI/ZHUSGS13800 4.89 Unspecified NONE
6632019-04-17 09:07:08PSTYesMI/ZHUSGS135004.95 Unspecified NONE
6622019-04-17 08:57:06PSTYesMI/ZHUSGS142005.02 Unspecified NONE
6612019-04-17 08:48:22PSTYesMI/ZHUSGS141005.08 Unspecified NONE
6602019-01-30 13:09:53PSTYesMI, CHUSGS-95907.47 Good NONE
6592019-01-30 13:03:31PSTYesMI, CHUSGS-108007.46 Good NONE
6582019-01-30 12:56:29PSTYesMI, CHUSGS-105007.45 Good NONE
6572019-01-30 12:49:43PSTYesMI, CHUSGS-110007.43 Good NONE
6562019-01-30 12:43:02PSTYesMI, CHUSGS-115007.41 Good NONE
6552019-01-30 12:36:25PSTYesMI, CHUSGS-129007.38 Good NONE
6542018-11-27 11:04:22PSTYesCH, MIUSGS44306.09 FairClearNONE
6532018-11-27 10:53:46PSTYesCH, MIUSGS34906.15 FairClearNONE
6522018-11-27 10:42:17PSTYesCH, MIUSGS12906.20 FairClearNONE
6512018-11-27 10:28:34PSTYesCH, MIUSGS-13806.26 FairClearNONE
6502018-11-27 10:16:50PSTYesCH, MIUSGS-34906.30 FairClearNONE
6492018-11-27 10:08:36PSTYesCH, MIUSGS-45706.32 FairClearNONE
6482018-10-23 16:20:26PSTYesRJ/ACUSGS-81606.89 Fair NONE
6472018-10-23 16:14:54PSTYesRJ/ACUSGS-91506.88 Fair NONE
6462018-10-23 16:09:05PSTYesRJ/ACUSGS-101006.87 Fair NONE
6452018-10-23 16:02:41PSTYesRJ/ACUSGS-105006.86 Fair NONE
6442018-10-23 15:56:06PSTYesRJ/ACUSGS-112006.84 Fair NONE
6432018-10-23 15:49:57PSTYesRJ/ACUSGS-117006.82 Fair NONE
6422018-09-28 09:40:05PSTYesMI/AC/HRUSGS93505.95 Good NONE
6412018-09-28 09:29:36PSTYesMI/AC/HRUSGS90106.04 Good NONE
6402018-09-28 09:20:45PSTYesMI/AC/HRUSGS85706.09 Good NONE
6392018-09-28 09:10:20PSTYesMI/AC/HRUSGS78606.17 Good NONE
6382018-09-28 09:02:47PSTYesMI/AC/HRUSGS73006.22 Good NONE
6372018-09-28 08:54:05PSTYesMI/AC/HRUSGS62606.28 Good NONE
6362018-08-08 09:19:08PSTYesMI/ACUSGS87304.03 Good NONE
6352018-08-08 09:13:16PSTYesMI/ACUSGS88404.06 Good NONE
6342018-08-08 09:07:15PSTYesMI/ACUSGS89004.10 Good NONE
6332018-08-08 09:01:26PSTYesMI/ACUSGS90204.15 Good NONE
6322018-08-08 08:55:55PSTYesMI/ACUSGS93004.19 Good NONE
6312018-08-08 08:50:42PSTYesMI/ACUSGS89504.22 Good NONE
6302018-06-14 09:27:47PSTYesMI/CHUSGS156005.45 Good NONE
6292018-06-14 09:22:05PSTYesMI/CHUSGS153005.51 Good NONE
6282018-06-14 09:16:41PSTYesMI/CHUSGS151005.55 Good NONE
6272018-06-14 09:11:05PSTYesMI/CHUSGS155005.62 Good NONE
6262018-06-14 09:05:49PSTYesMI/CHUSGS150005.66 Good NONE
6252018-06-14 08:58:48PSTYesMI/CHUSGS151005.73 Good NONE
6242018-04-04 09:59:30PSTYesCC/CHUSGS144005.96 Good NONE
6232018-04-04 09:53:43PSTYesCC/CHUSGS138006.01 Good NONE
6222018-04-04 09:47:41PSTYesCC/CHUSGS137006.06 Good NONE
6212018-04-04 09:41:52PSTYesCC/CHUSGS133006.10 Good NONE
6202018-04-04 09:36:06PSTYesCC/CHUSGS134006.15 Good NONE
6192018-04-04 09:30:30PSTYesCC/CHUSGS130006.19 Good NONE
6182018-04-04 09:24:45PSTYesCC/CHUSGS129006.23 Good NONE
6172018-04-04 09:18:17PSTYesCC/CHUSGS126006.27 Good NONE
6162018-01-29 11:45:34PSTYesTV,CH,MIUSGS-184005.77 Good NONE
6152018-01-29 11:37:11PSTYesTV,CH,MIUSGS-177005.69 Good NONE
6142018-01-29 11:28:33PSTYesTV,CH,MIUSGS-183005.60 Good NONE
6132018-01-29 11:19:44PSTYesTV,CH,MIUSGS-182005.51 Good NONE
6122018-01-29 11:11:19PSTYesTV,CH,MIUSGS-172005.43 Good NONE
6112018-01-29 11:03:47PSTYesTV,CH,MIUSGS-167005.35 Good NONE
6102017-11-22 12:06:04PSTYesRPJ/CCHUSGS48005.12 Good NONE
6092017-11-22 11:58:04PSTYesRPJ/CCHUSGS51605.15 Good NONE
6082017-11-22 11:50:37PSTYesRPJ/CCHUSGS55205.18 Good NONE
6072017-11-22 11:42:59PSTYesRPJ/CCHUSGS56005.22 Good NONE
6062017-11-22 11:35:29PSTYesRPJ/CCHUSGS59405.26 Good NONE
6052017-11-22 11:27:55PSTYesRPJ/CCHUSGS59105.30 Good NONE
6042017-08-31 09:57:22PSTYesTV,NSUSGS-112004.51 GoodUnspecifedNONE
6032017-08-31 09:50:17PSTYesTV,NSUSGS-109004.45 GoodUnspecifedNONE
6022017-08-31 09:43:09PSTYesTV,NSUSGS-99404.39 GoodUnspecifedNONE
6012017-08-31 09:36:14PSTYesTV,NSUSGS-90304.33 GoodUnspecifedNONE
6002017-08-31 09:29:27PSTYesTV,NSUSGS-75504.28 GoodUnspecifedNONE
5992017-08-31 09:23:36PSTYesTV,NSUSGS-66904.24 GoodUnspecifedNONE
5982017-06-29 10:08:14PSTYesTV/CHUSGS81506.59 Good NONE
5972017-06-29 10:00:37PSTYesTV/CHUSGS70506.64 Good NONE
5962017-06-29 09:52:35PSTYesTV/CHUSGS53106.69 Good NONE
5952017-06-29 09:43:33PSTYesTV/CHUSGS40106.75 Good NONE
5942017-06-29 09:35:19PSTYesTV/CHUSGS19006.80 Good NONE
5932017-06-29 09:26:54PSTYesTV/CHUSGS6176.85 Good NONE
5922017-06-29 09:19:10PSTYesTV/CHUSGS-8966.88 Good NONE
5912017-06-29 09:10:57PSTYesTV/CHUSGS-29706.92 Good NONE
5902017-06-29 09:02:03PSTYesTV/CHUSGS-44106.94 Good NONE
5892017-06-29 08:54:09PSTYesTV/CHUSGS-56706.96 Good NONE
5882017-06-29 08:47:14PSTYesTV/CHUSGS-61106.96 Good NONE
5872017-06-29 08:40:13PSTYesTV/CHUSGS-78506.96 Good NONE
5812017-04-19 10:12:15PSTYesTV, CHUSGS20106.47 Good NONE
5822017-04-19 10:03:46PSTYesTV, CHUSGS9906.48 Good NONE
5832017-04-19 09:55:24PSTYesTV, CHUSGS-70.66.49 Good NONE
5842017-04-19 09:38:50PSTYesTV, CHUSGS-18106.49 Good NONE
5852017-04-19 09:31:14PSTYesTV, CHUSGS-25106.48 Good NONE
5862017-04-19 09:24:01PSTYesTV, CHUSGS-32206.48 Good NONE
5802017-03-02 12:14PSTYesBS/RJUSGS176006.32 Unspecified NONE
5792017-03-02 12:08PSTYesBS/RJUSGS171006.36 Unspecified NONE
5782017-03-02 12:02PSTYesBS/RJUSGS173006.40 Unspecified NONE
5772017-03-02 11:55:30PSTYesBS/RJUSGS175006.44 Unspecified NONE
5762017-03-02 11:49PSTYesBS/RJUSGS174006.48 Unspecified NONE
5752017-03-02 11:43PSTYesBS/RJUSGS175006.54 Unspecified NONE
5742017-02-14 11:40:54PSTYesTV/CHUSGS131007.52 Good NONE
5732017-02-14 11:29:33PSTYesTV/CHUSGS128007.58 Good NONE
5722017-02-14 11:20:15PSTYesTV/CHUSGS129007.63 Good NONE
5712017-02-14 11:11:17PSTYesTV/CHUSGS126007.68 Good NONE
5702017-02-14 10:59:56PSTYesTV/CHUSGS127007.74 Good NONE
5692017-02-14 10:47:10PSTYesTV/CHUSGS123007.81 Good NONE
5682016-12-07 11:45:28PSTYesTV,CHUSGS-101005.85 Good NONE
5672016-12-07 11:38:43PSTYesTV,CHUSGS-108005.84 Good NONE
5662016-12-07 11:31:45PSTYesTV,CHUSGS-110005.82 Good NONE
5652016-12-07 11:24:32PSTYesTV,CHUSGS-122005.81 Good NONE
5642016-12-07 11:05:46PSTYesTV,CHUSGS-126005.73 Good NONE
5632016-12-07 10:59:31PSTYesTV,CHUSGS-131005.70 Good NONE
5622016-09-15 11:54:51PSTYesTV, CHUSGS-85904.18 Good NONE
5612016-09-15 11:46:55PSTYesTV, CHUSGS-68204.10 Good NONE
5602016-09-15 11:39:19PSTYesTV, CHUSGS-48904.02 Good NONE
5592016-09-15 11:32:43PSTYesTV, CHUSGS-29703.95 Good NONE
5582016-09-15 11:25:36PSTYesTV, CHUSGS-12003.88 Good NONE
5572016-09-15 11:18:31PSTYesTV, CHUSGS7263.82 Good NONE
5562016-09-15 11:11:38PSTYesTV, CHUSGS23203.78 Good NONE
5552016-09-15 11:03:41PSTYesTV, CHUSGS39003.75 Good NONE
5542016-09-15 10:54:49PSTYesTV, CHUSGS52003.73 Good NONE
5532016-09-15 10:46:05PSTYesTV, CHUSGS62103.73 Good NONE
5522016-09-15 10:37PSTYesTV, CHUSGS69203.75 Good NONE
5512016-09-15 10:28:09PSTYesTV, CHUSGS76603.78 Good NONE
5502016-09-15 10:20:59PSTYesTV, CHUSGS79703.81 Good NONE
5492016-09-15 10:13:49PSTYesTV, CHUSGS83103.85 Good NONE
5482016-09-15 10:07:06PSTYesTV, CHUSGS85303.89 Good NONE
5472016-09-15 10:00:29PSTYesTV, CHUSGS87803.93 Good NONE
5462016-06-30 11:03:35PSTYesTV, CHUSGS-159004.91 Good NONE
5452016-06-30 10:56:24PSTYesTV, CHUSGS-149004.86 Good NONE
5442016-06-30 10:36PSTYesTV, CHUSGS-133004.72 Good NONE
5432016-06-30 10:27:01PSTYesTV, CHUSGS-134004.65 Fair NONE
5422016-06-30 10:17:35PSTYesTV, CHUSGS-117004.58 Good NONE
5412016-06-30 10:09:36PSTYesTV, CHUSGS-101004.51 Good NONE
5402016-04-07 12:21:02PSTYesTV, CHUSGS-13304.22 Poor NONE
5392016-04-07 12:13:43PSTYesTV, CHUSGS8964.14 Fair NONE
5382016-04-07 12:06:34PSTYesTV, CHUSGS26404.09 Fair NONE
5372016-04-07 11:59:07PSTYesTV, CHUSGS45904.03 Fair NONE
5362016-04-07 11:51:29PSTYesTV, CHUSGS58304.01 Fair NONE
5352016-04-07 11:43:02PSTYesTV, CHUSGS75803.99 Good NONE
5342015-12-07 14:19:25PSTYesTV,RJUSGS-99806.93 Fair NONE
5332015-12-07 14:10:58PSTYesTV,RJUSGS-103006.91 Fair NONE
5322015-12-07 14:02:36PSTYesTV,RJUSGS-117006.89 Fair NONE
5312015-12-07 13:50:59PSTYesTV,RJUSGS-121006.85 Fair NONE
5302015-12-07 13:40:41PSTYesTV,RJUSGS-131006.81 Fair NONE
5292015-12-07 13:29:24PSTYesTV,RJUSGS-144006.75 Fair NONE
5282015-12-07 13:20:23PSTYesTV,RJUSGS-142006.69 Fair NONE
5272015-12-07 13:11:32PSTYesTV,RJUSGS-146006.64 Fair NONE
5262015-10-14 10:30:01PSTYesTV, CHUSGS104005.11 Poor NONE
5252015-10-14 10:22:15PSTYesTV, CHUSGS111005.16 Fair NONE
5242015-10-14 10:14:42PSTYesTV, CHUSGS116005.21 Fair NONE
5232015-10-14 09:59:45PSTYesTV, CHUSGS115005.31 Poor NONE
5222015-10-14 09:50:31PSTYesTV, CHUSGS119005.38 Fair NONE
5212015-10-14 09:41:31PSTYesTV, CHUSGS121005.44 Fair NONE
5202015-08-13 10:21:58PSTYesAD,CHUSGS64204.52 PoorClearNONE
5192015-08-13 10:14:01PSTYesAD,CHUSGS65204.58 PoorClearNONE
5182015-08-13 10:06:52PSTYesAD,CHUSGS67304.63 PoorClearNONE
5172015-08-13 09:59:18PSTYesAD,CHUSGS69104.69 PoorClearNONE
5162015-08-13 09:51:42PSTYesAD,CHUSGS70104.75 PoorClearNONE
5152015-08-13 09:43PSTYesAD,CHUSGS73804.82 PoorClearNONE
5142015-08-13 09:35:47PSTYesAD,CHUSGS74204.88 PoorClearNONE
5132015-08-13 09:29:22PSTYesAD,CHUSGS75104.93 PoorClearNONE
5122015-06-16 14:01PSTYesAD/JDUSGS-72004.46 PoorClearNONE
5112015-06-16 13:51PSTYesAD/JDUSGS-62904.39 ExcellentClearNONE
5102015-06-16 13:45PSTYesAD/JDUSGS-56404.33 PoorClearNONE
5092015-06-16 13:37PSTYesAD/JDUSGS-38104.26 FairClearNONE
5082015-06-16 13:29PSTYesAD/JDUSGS-28504.18 PoorClearNONE
5072015-06-16 13:21PSTYesAD/JDUSGS-14504.13 PoorClearNONE
5062015-03-03 17:37PSTYes??/??USGS117006.01 UnspecifiedClearNONE
5052015-03-03 17:27PSTYes??/??USGS100006.10 UnspecifiedClearNONE
5042015-03-03 17:20PSTYes??/??USGS96306.17 UnspecifiedClearNONE
5032015-03-03 17:11PSTYes??/??USGS85206.22 UnspecifiedClearNONE
5022015-03-03 16:58PSTYes??/??USGS63606.29 UnspecifiedClearNONE
5012015-03-03 16:43PSTYes??/??USGS36406.39 UnspecifiedClearNONE
5002014-12-02 14:51PSTYesKM,LKUSGS59006.82 Unspecified NONE
4992014-12-02 14:37PSTYesKM,LKUSGS49006.91 Unspecified NONE
4982014-12-02 14:28PSTYesKM,LKUSGS3666.97 Unspecified NONE
4972014-12-02 14:11PSTYesKM,LKUSGS-20207.08 Unspecified NONE
4962014-12-02 14:00PSTYesKM,LKUSGS-53407.09 Unspecified NONE
4952014-12-02 13:44PSTYesKM,LKUSGS-79307.11 Unspecified NONE
4942014-12-02 13:31PSTYesKM,LKUSGS-111007.09 Unspecified NONE
4932014-12-02 13:15PSTYesKM,LKUSGS-121007.05 Unspecified NONE
4922014-12-02 13:05PSTYesKM,LKUSGS-135007.00 Unspecified NONE
4912014-12-02 12:52PSTYesKM,LKUSGS-140006.94 Unspecified NONE
4902014-09-19 14:43PSTYesYESUSGS-9670 Unspecified NONE
4892014-09-19 14:34PSTYesYESUSGS-10500 Unspecified NONE
4882014-09-19 14:02PSTYesYESUSGS-11400 Unspecified NONE
4872014-09-19 13:53PSTYesYESUSGS-12100 Unspecified NONE
4862014-09-19 13:42PSTYesYESUSGS-12400 Unspecified NONE
4852014-09-19 13:24PSTYesYESUSGS-12200 Unspecified NONE
4842012-08-08 12:54PSTYesYESUSGS6810 Unspecified NONE
4832012-08-08 12:44PSTYesYESUSGS7230 Unspecified NONE
4822012-08-08 12:35PSTYesYESUSGS7140 Unspecified NONE
4812012-08-08 12:25PSTYesYESUSGS7300 Unspecified NONE
4802012-08-08 12:16PSTYesYESUSGS7190 Unspecified NONE
4792012-08-08 12:02PSTYesYESUSGS7380 Unspecified NONE
4782012-08-08 11:22PSTYesYESUSGS5840 Unspecified NONE
4772012-08-08 11:08PSTYesYESUSGS4910 Unspecified NONE
4762012-08-08 10:57PSTYesYESUSGS3360 Unspecified NONE
4752011-04-08 12:49PSTYesYESUSGS15800 Unspecified NONE
4742011-04-08 12:41PSTYesYESUSGS15600 Unspecified NONE
4732011-04-08 12:29PSTYesYESUSGS15400 Unspecified NONE
4722011-04-08 12:19PSTYesYESUSGS15500 Unspecified NONE
4712010-08-12 16:37PSTYesYESUSGS-15900 Unspecified NONE
4702010-08-12 16:30PSTYesYESUSGS-16100 Unspecified NONE
4692010-08-12 16:22PSTYesYESUSGS-16300 Unspecified NONE
4682010-08-12 16:15PSTYesYESUSGS-17200 Unspecified NONE
4672010-08-12 16:00PSTYesYESUSGS-16900 Unspecified NONE
4662010-08-12 15:51PSTYesYESUSGS-16900 Unspecified NONE
4652010-07-13 18:43PSTYesYESUSGS-12700 Unspecified NONE
4642010-07-13 18:38PSTYesYESUSGS-13100 Unspecified NONE
4632010-07-13 18:29PSTYesYESUSGS-13000 Unspecified NONE
4622010-07-13 18:23PSTYesYESUSGS-13900 Unspecified NONE
4612010-07-13 18:15PSTYesYESUSGS-13500 Unspecified NONE
4602010-07-13 18:09PSTYesYESUSGS-14300 Unspecified NONE
4592010-07-13 18:00PSTYesYESUSGS-15300 Unspecified NONE
4582010-07-13 17:55PSTYesYESUSGS-15100 Unspecified NONE
4572010-07-13 17:44PSTYesYESUSGS-15000 Unspecified NONE
4562010-07-13 17:38PSTYesYESUSGS-15200 Unspecified NONE
4552010-07-13 17:29PSTYesYESUSGS-15800 Unspecified NONE
4542010-07-13 17:22PSTYesYESUSGS-15900 Unspecified NONE
4532010-07-13 16:52PSTYesYESUSGS-16400 Unspecified NONE
4522010-07-13 16:46PSTYesYESUSGS-16800 Unspecified NONE
4512010-07-13 16:36PSTYesYESUSGS-16400 Unspecified NONE
4502010-07-13 16:29PSTYesYESUSGS-16100 Unspecified NONE
4492010-07-13 16:22PSTYesYESUSGS-16500 Unspecified NONE
4482010-07-13 16:15PSTYesYESUSGS-16200 Unspecified NONE
4472010-07-13 16:08PSTYesYESUSGS-16200 Unspecified NONE
4462010-07-13 16:03PSTYesYESUSGS-16100 Unspecified NONE
4452010-07-13 15:55PSTYesYESUSGS-15600 Unspecified NONE
4442010-07-13 15:48PSTYesYESUSGS-15600 Unspecified MEAS
4432010-07-13 15:19PSTYesYESUSGS-13800 Unspecified NONE
4422010-07-13 15:14PSTYesYESUSGS-13600 Unspecified NONE
4412010-07-13 15:07PSTYesYESUSGS-12500 Unspecified NONE
4402010-07-13 15:02PSTYesYESUSGS-11400 Unspecified NONE
4392010-07-13 14:56PSTYesYESUSGS-11000 Unspecified NONE
4382010-07-13 14:51PSTYesYESUSGS-9620 Unspecified NONE
4372010-07-13 14:44PSTYesYESUSGS-8760 Unspecified NONE
4362010-07-13 14:39PSTYesYESUSGS-7130 Unspecified NONE
4352010-07-13 14:33PSTYesYESUSGS-5720 Unspecified NONE
4342010-07-13 14:28PSTYesYESUSGS-4150 Unspecified NONE
4332010-07-13 14:22PSTYesYESUSGS-2740 Unspecified NONE
4322010-07-13 14:17PSTYesYESUSGS-1200 Unspecified NONE
4312010-07-13 14:10PSTYesYESUSGS-109 Unspecified NONE
4302010-07-13 14:05PSTYesYESUSGS1550 Unspecified NONE
4292010-07-13 13:58PSTYesYESUSGS2620 Unspecified NONE
4282010-07-13 13:53PSTYesYESUSGS4050 Unspecified NONE
4272010-07-13 13:44PSTYesYESUSGS4910 Unspecified NONE
4262010-07-13 13:39PSTYesYESUSGS5910 Unspecified NONE
4252010-07-13 13:31PSTYesYESUSGS6670 Unspecified NONE
4242010-07-13 13:26PSTYesYESUSGS7270 Unspecified NONE
4232010-07-13 13:18PSTYesYESUSGS7750 Unspecified NONE
4222010-07-13 13:13PSTYesYESUSGS7840 Unspecified NONE
4212010-07-13 12:48PSTYesYESUSGS9210 Unspecified NONE
4202010-07-13 12:43PSTYesYESUSGS9350 Unspecified NONE
4192010-07-13 12:36PSTYesYESUSGS9520 Unspecified NONE
4182010-07-13 12:31PSTYesYESUSGS9890 Unspecified NONE
4172010-07-13 12:23PSTYesYESUSGS9950 Unspecified NONE
4162010-07-13 12:17PSTYesYESUSGS9960 Unspecified NONE
4152010-07-13 12:06PSTYesYESUSGS10400 Unspecified NONE
4142010-07-13 12:01PSTYesYESUSGS10600 Unspecified NONE
4132010-07-13 11:52PSTYesYESUSGS10600 Unspecified NONE
4122010-07-13 11:47PSTYesYESUSGS10700 Unspecified NONE
4112010-07-13 11:38PSTYesYESUSGS10800 Unspecified NONE
4102010-07-13 11:32PSTYesYESUSGS11100 Unspecified NONE
4092010-07-13 11:24PSTYesYESUSGS11400 Unspecified NONE
4082010-07-13 11:19PSTYesYESUSGS11400 Unspecified NONE
4072010-07-13 10:28PSTYesYESUSGS12100 Unspecified NONE
4062010-07-13 10:22PSTYesYESUSGS12200 Unspecified NONE
4052010-07-13 10:12PSTYesYESUSGS12400 Unspecified NONE
4042010-07-13 10:04PSTYesYESUSGS12800 Unspecified NONE
4032010-07-13 09:54PSTYesYESUSGS12700 Unspecified NONE
4022010-07-13 09:48PSTYesYESUSGS12700 Unspecified NONE
4012010-07-13 09:17PSTYesYESUSGS13400 Unspecified NONE
4002010-07-13 09:12PSTYesYESUSGS13500 Unspecified NONE
3992010-07-13 08:50PSTYesYESUSGS14000 Unspecified NONE
3982010-07-13 08:43PSTYesYESUSGS13900 Unspecified NONE
3972010-07-13 08:14PSTYesYESUSGS13900 Unspecified NONE
3962010-07-13 08:08PSTYesYESUSGS13600 Unspecified NONE
3952010-07-13 07:58PSTYesYESUSGS13600 Unspecified NONE
3942010-07-13 07:52PSTYesYESUSGS13300 Unspecified NONE
3932010-07-13 07:42PSTYesYESUSGS13200 Unspecified NONE
3922010-07-13 07:36PSTYesYESUSGS12700 Unspecified NONE
3912010-07-13 07:22PSTYesYESUSGS12400 Unspecified NONE
3902010-07-13 07:15PSTYesYESUSGS11500 Unspecified NONE
3892010-07-13 07:04PSTYesYESUSGS10900 Unspecified NONE
3882010-07-13 06:57PSTYesYESUSGS9730 Unspecified NONE
3872010-07-13 06:44PSTYesYESUSGS7830 Unspecified NONE
3862010-07-13 06:33PSTYesYESUSGS5780 Unspecified NONE
3852010-07-13 06:09PSTYesYESUSGS695 Unspecified NONE
3842010-01-27 13:12PSTYesYESUSGS-15600 Unspecified NONE
3832010-01-27 13:07PSTYesYESUSGS-15200 Unspecified NONE
3822010-01-27 13:03PSTYesYESUSGS-15700 Unspecified NONE
3812010-01-27 12:56PSTYesYESUSGS-15900 Unspecified NONE
3802010-01-27 12:51PSTYesYESUSGS-15600 Unspecified NONE
3792010-01-27 12:45PSTYesYESUSGS-16000 Unspecified NONE
3782009-06-24 16:07PSTYesYESUSGS-15600 Unspecified NONE
3772009-06-24 16:01PSTYesYESUSGS-15400 Unspecified NONE
3762009-06-24 15:55PSTYesYESUSGS-15400 Unspecified NONE
3752009-06-24 15:49PSTYesYESUSGS-15300 Unspecified NONE
3742009-06-24 15:44PSTYesYESUSGS-14900 Unspecified NONE
3732009-06-24 15:39PSTYesYESUSGS-14900 Unspecified NONE
3722009-06-24 15:34PSTYesYESUSGS-14200 Unspecified NONE
3712009-06-24 15:25PSTYesYESUSGS-13600 Unspecified NONE
3702009-06-24 15:20PSTYesYESUSGS-12900 Unspecified NONE
3692009-06-24 15:16PSTYesYESUSGS-12700 Unspecified NONE
3682009-06-24 15:12PSTYesYESUSGS-11900 Unspecified NONE
3672009-06-24 15:07PSTYesYESUSGS-11100 Unspecified NONE
3662009-06-24 15:03PSTYesYESUSGS-9860 Unspecified NONE
3652009-06-24 14:56PSTYesYESUSGS-9010 Unspecified NONE
3642009-06-24 14:51PSTYesYESUSGS-7260 Unspecified NONE
3632009-06-24 14:44PSTYesYESUSGS-5940 Unspecified NONE
3622009-06-24 14:39PSTYesYESUSGS-4010 Unspecified NONE
3612009-06-24 14:32PSTYesYESUSGS-2620 Unspecified NONE
3602009-06-24 14:29PSTYesYESUSGS-508 Unspecified NONE
3592009-06-24 14:21PSTYesYESUSGS708 Unspecified NONE
3582009-06-24 14:15PSTYesYESUSGS3080 Unspecified NONE
3572009-06-24 14:09PSTYesYESUSGS4100 Unspecified NONE
3562009-06-24 14:04PSTYesYESUSGS5430 Unspecified NONE
3552009-06-24 13:58PSTYesYESUSGS6460 Unspecified NONE
3542009-06-24 13:52PSTYesYESUSGS7430 Unspecified NONE
3532009-06-24 13:43PSTYesYESUSGS8430 Unspecified NONE
3522009-06-24 13:39PSTYesYESUSGS9250 Unspecified NONE
3512009-06-24 13:29PSTYesYESUSGS10300 Unspecified NONE
3502009-06-24 13:24PSTYesYESUSGS10600 Unspecified NONE
3492009-06-24 13:18PSTYesYESUSGS11000 Unspecified NONE
3482009-06-24 13:14PSTYesYESUSGS11100 Unspecified NONE
3472009-06-24 13:08PSTYesYESUSGS11300 Unspecified NONE
3462009-06-24 13:03PSTYesYESUSGS12000 Unspecified NONE
3452009-06-24 12:57PSTYesYESUSGS12200 Unspecified NONE
3442009-06-24 12:52PSTYesYESUSGS12800 Unspecified NONE
3432009-06-24 12:43PSTYesYESUSGS13100 Unspecified NONE
3422009-06-24 12:39PSTYesYESUSGS13200 Unspecified NONE
3412009-06-24 12:32PSTYesYESUSGS13300 Unspecified NONE
3402009-06-24 12:27PSTYesYESUSGS13200 Unspecified NONE
3392009-06-24 12:20PSTYesYESUSGS13600 Unspecified NONE
3382009-06-24 12:16PSTYesYESUSGS13800 Unspecified NONE
3372009-06-24 12:07PSTYesYESUSGS13700 Unspecified NONE
3362009-06-24 12:02PSTYesYESUSGS14000 Unspecified NONE
3352009-06-24 11:54PSTYesYESUSGS14300 Unspecified NONE
3342009-06-24 11:49PSTYesYESUSGS14100 Unspecified NONE
3332009-06-24 11:40PSTYesYESUSGS14800 Unspecified NONE
3322009-06-24 11:34PSTYesYESUSGS14400 Unspecified NONE
3312009-06-24 10:58PSTYesYESUSGS15200 Unspecified NONE
3302009-06-24 10:53PSTYesYESUSGS15200 Unspecified NONE
3292009-06-24 10:26PSTYesYESUSGS15500 Unspecified NONE
3282009-06-24 10:21PSTYesYESUSGS15200 Unspecified NONE
3272009-06-24 09:48PSTYesYESUSGS15700 Unspecified NONE
3262009-06-24 09:43PSTYesYESUSGS15500 Unspecified NONE
3252009-06-24 09:00PSTYesYESUSGS15600 Unspecified NONE
3242009-06-24 08:55PSTYesYESUSGS15500 Unspecified NONE
3232009-06-24 08:24PSTYesYESUSGS15300 Unspecified NONE
3222009-06-24 08:19PSTYesYESUSGS15300 Unspecified NONE
3212009-06-24 08:11PSTYesYESUSGS15300 Unspecified NONE
3202009-06-24 08:05PSTYesYESUSGS15400 Unspecified NONE
3192009-06-24 07:42PSTYesYESUSGS15100 Unspecified NONE
3182009-06-24 07:36PSTYesYESUSGS14900 Unspecified NONE
3172009-06-24 07:28PSTYesYESUSGS14800 Unspecified NONE
3162009-06-24 07:23PSTYesYESUSGS14300 Unspecified NONE
3152009-06-24 07:16PSTYesYESUSGS14400 Unspecified NONE
3142009-06-24 07:11PSTYesYESUSGS13500 Unspecified NONE
3132009-06-24 07:03PSTYesYESUSGS13400 Unspecified NONE
3122009-06-24 06:57PSTYesYESUSGS12800 Unspecified NONE
3112009-06-24 06:50PSTYesYESUSGS12300 Unspecified NONE
3102009-06-24 06:45PSTYesYESUSGS10900 Unspecified NONE
3092009-06-24 06:38PSTYesYESUSGS9830 Unspecified NONE
3082009-06-24 06:33PSTYesYESUSGS9080 Unspecified NONE
3072009-06-24 06:26PSTYesYESUSGS7720 Unspecified NONE
3062009-06-24 06:21PSTYesYESUSGS6640 Unspecified NONE
3052009-06-24 06:10PSTYesYESUSGS3850 Unspecified NONE
3042009-06-24 06:05PSTYesYESUSGS2210 Unspecified NONE
3032009-06-24 05:58PSTYesYESUSGS84.3 Unspecified NONE
3022009-01-14 10:59PSTYesBJS/MAYUSGS115004.83 Unspecified NONE
3012009-01-14 10:51PSTYesBJS/MAYUSGS116004.89 Unspecified NONE
3002009-01-14 10:44PSTYesBJS/MAYUSGS113004.94 Unspecified NONE
2992009-01-14 10:37PSTYesBJS/MAYUSGS113004.99 Unspecified NONE
2982009-01-14 10:31PSTYesBJS/MAYUSGS107002.03 Unspecified NONE
2972009-01-14 10:24PSTYesBJS/MAYUSGS107005.08 Unspecified NONE
2962008-08-20 10:01PSTYesTMG/CARUSGS124005.38 Unspecified NONE
2952008-08-20 09:52PSTYesTMG/CARUSGS123005.44 Unspecified NONE
2942008-08-20 09:44PSTYesTMG/CARUSGS122005.50 Unspecified NONE
2932008-08-20 09:33PSTYesTMG/CARUSGS124005.59 Unspecified NONE
2922008-08-20 09:22PSTYesTMG/CARUSGS117005.67 Unspecified NONE
2912008-08-20 09:14PSTYesTMG/CARUSGS118005.72 Unspecified NONE
2902008-08-20 09:06PSTYesTMG/CARUSGS113005.78 Unspecified NONE
2892008-08-20 08:58PSTYesTMG/CARUSGS112005.83 Unspecified NONE
2882008-08-20 08:51PSTYesTMG/CARUSGS106005.88 Unspecified NONE
2872008-08-20 08:43PSTYesTMG/CARUSGS106005.93 Unspecified NONE
2862008-06-17 08:05PSTYesTMG/CARUSGS136005.36 Unspecified NONE
2852008-06-17 07:54PSTYesTMG/CARUSGS145005.46 Unspecified NONE
2842008-06-17 07:43PSTYesTMG/CARUSGS142005.55 Unspecified NONE
2832008-06-17 07:30PSTYesTMG/CARUSGS140005.67 Unspecified NONE
2822008-06-17 07:21PSTYesTMG/CARUSGS144005.73 Unspecified NONE
2812008-06-17 07:15PSTYesTMG/CARUSGS141005.79 Unspecified NONE
2802008-06-17 07:05PSTYesTMG/CARUSGS141005.87 Unspecified NONE
2792008-06-17 06:59PSTYesTMG/CARUSGS143005.92 Unspecified NONE
2782008-05-14 19:18PSTYesJBD/JEGUSGS94603.40 Unspecified NONE
2772008-05-14 19:09PSTYesJBD/JEGUSGS96903.43 Unspecified NONE
2762008-05-14 19:01PSTYesJBD/JEGUSGS101003.46 Unspecified NONE
2752008-05-14 18:53PSTYesJBD/JEGUSGS104003.50 Unspecified NONE
2742008-05-14 18:45PSTYesJBD/JEGUSGS105003.53 Unspecified NONE
2732008-05-14 18:36PSTYesJBD/JEGUSGS108003.58 Unspecified NONE
2722008-05-14 18:28PSTYesJBD/JEGUSGS110003.62 Unspecified NONE
2712008-05-14 18:19PSTYesJBD/JEGUSGS113003.67 Unspecified NONE
2702008-05-14 18:10PSTYesJBD/JEGUSGS114003.73 Unspecified NONE
2692008-05-14 18:02PSTYesJBD/JEGUSGS112003.78 Unspecified NONE
2682008-05-14 17:56PSTYesJBD/JEGUSGS115003.83 Unspecified NONE
2672008-05-14 17:49PSTYesJBD/JEGUSGS113003.87 Unspecified NONE
2662008-05-14 17:43PSTYesJBD/JEGUSGS118003.92 Unspecified NONE
2652008-05-14 17:36PSTYesJBD/JEGUSGS115003.97 Unspecified NONE
2642008-05-14 17:29PSTYesJBD/JEGUSGS118004.02 Unspecified NONE
2632008-05-14 17:21PSTYesJBD/JEGUSGS117004.09 Unspecified NONE
2622008-05-14 17:11PSTYesJBD/JEGUSGS120004.16 Unspecified NONE
2612008-05-14 17:02PSTYesJBD/JEGUSGS119004.23 Unspecified NONE
2602008-05-14 16:53PSTYesJBD/JEGUSGS119004.29 Unspecified NONE
2592008-05-14 16:44PSTYesJBD/JEGUSGS116004.36 Unspecified NONE
2582008-05-14 16:36PSTYesJBD/JEGUSGS119004.43 Unspecified NONE
2572008-05-14 16:27PSTYesJBD/JEGUSGS117004.49 Unspecified NONE
2562008-05-14 16:19PSTYesJBD/JEGUSGS118004.55 Unspecified NONE
2552008-05-14 16:10PSTYesJBD/JEGUSGS113004.62 Unspecified NONE
2542008-05-14 16:02PSTYesJBD/JEGUSGS112004.69 Unspecified NONE
2532008-05-14 15:54PSTYesJBD/JEGUSGS111004.74 Unspecified NONE
2522008-05-14 15:48PSTYesJBD/JEGUSGS110004.78 Unspecified NONE
2512008-05-14 15:24PSTYesJBD/JEGUSGS99704.95 Unspecified NONE
2502008-05-14 15:17PSTYesJBD/JEGUSGS92505.00 Unspecified NONE
2492008-05-14 15:11PSTYesJBD/JEGUSGS91405.04 Unspecified NONE
2482008-05-14 15:04PSTYesJBD/JEGUSGS83305.08 Unspecified NONE
2472008-05-14 14:59PSTYesJBD/JEGUSGS80405.12 Unspecified NONE
2462008-05-14 14:52PSTYesJBD/JEGUSGS76605.16 Unspecified NONE
2452008-05-14 14:46PSTYesJBD/JEGUSGS69005.19 Unspecified NONE
2442008-05-14 14:40PSTYesJBD/JEGUSGS62505.23 Unspecified NONE
2432008-05-14 14:34PSTYesJBD/JEGUSGS53105.26 Unspecified NONE
2422008-05-14 14:27PSTYesJBD/JEGUSGS45205.29 Unspecified NONE
2412008-05-14 14:19PSTYesJBD/JEGUSGS28005.34 Unspecified NONE
2402008-05-14 14:12PSTYesJBD/JEGUSGS18405.38 Unspecified NONE
2392008-05-14 14:04PSTYesJBD/JEGUSGS4535.43 Unspecified NONE
2382008-05-14 13:57PSTYesJBD/JEGUSGS-8085.46 Unspecified NONE
2372008-05-14 13:52PSTYesJBD/JEGUSGS-18505.49 Unspecified NONE
2362008-05-14 13:46PSTYesJBD/JEGUSGS-30105.52 Unspecified NONE
2352008-05-14 13:40PSTYesJBD/JEGUSGS-39205.53 Unspecified NONE
2342008-05-14 13:34PSTYesJBD/JEGUSGS-49105.55 Unspecified NONE
2332008-05-14 13:29PSTYesJBD/JEGUSGS-56405.56 Unspecified NONE
2322008-05-14 13:23PSTYesJBD/JEGUSGS-65205.56 Unspecified NONE
2312008-05-14 13:18PSTYesJBD/JEGUSGS-70705.56 Unspecified NONE
2302008-05-14 13:12PSTYesJBD/JEGUSGS-78405.56 Unspecified NONE
2292008-05-14 13:06PSTYesJBD/JEGUSGS-79005.56 Unspecified NONE
2282008-05-14 13:01PSTYesJBD/JEGUSGS-85405.55 Unspecified NONE
2272008-05-14 12:47PSTYesJBD/JEGUSGS-101005.53 Unspecified NONE
2262008-05-14 12:40PSTYesJBD/JEGUSGS-101005.50 Unspecified NONE
2252008-05-14 12:33PSTYesJBD/JEGUSGS-109005.47 Unspecified NONE
2242008-05-14 12:27PSTYesJBD/JEGUSGS-112005.44 Unspecified NONE
2232008-05-14 12:20PSTYesJBD/JEGUSGS-120005.41 Unspecified NONE
2222008-05-14 12:05PSTYesJBD/JEGUSGS-124005.33 Unspecified NONE
2212008-05-14 11:58PSTYesJBD/JEGUSGS-123005.29 Unspecified NONE
2202008-05-14 11:53PSTYesJBD/JEGUSGS-125005.25 Unspecified NONE
2192008-05-14 11:47PSTYesJBD/JEGUSGS-126005.22 Unspecified NONE
2182008-05-14 11:40PSTYesJBD/JEGUSGS-130005.17 Unspecified NONE
2172008-05-14 11:34PSTYesJBD/JEGUSGS-129005.13 Unspecified NONE
2162008-05-14 11:26PSTYesJBD/JEGUSGS-131005.06 Unspecified NONE
2152008-05-14 11:18PSTYesJBD/JEGUSGS-125005.00 Unspecified NONE
2142008-05-14 11:10PSTYesJBD/JEGUSGS-127004.95 Unspecified NONE
2132008-05-14 10:35PSTYesJBD/JEGUSGS-120004.72 Unspecified NONE
2122008-05-14 10:30PSTYesJBD/JEGUSGS-120004.68 Unspecified NONE
2112008-05-14 10:25PSTYesJBD/JEGUSGS-116004.64 Unspecified NONE
2102008-05-14 10:20PSTYesJBD/JEGUSGS-116004.61 Unspecified NONE
2092008-05-14 10:14PSTYesJBD/JEGUSGS-117004.56 Unspecified NONE
2082008-05-14 10:01PSTYesJBD/JEGUSGS-61704.47 Unspecified NONE
2072008-05-14 09:53PSTYesJBD/JEGUSGS-98804.42 Unspecified NONE
2062008-05-14 09:45PSTYesJBD/JEGUSGS-92604.38 Unspecified NONE
2052008-05-14 09:38PSTYesJBD/JEGUSGS-86804.32 Unspecified NONE
2042008-05-14 09:31PSTYesJBD/JEGUSGS-77404.28 Unspecified NONE
2032008-05-14 09:24PSTYesJBD/JEGUSGS-71504.24 Unspecified NONE
2022008-05-14 09:18PSTYesJBD/JEGUSGS-60504.21 Unspecified NONE
2012008-05-14 09:12PSTYesJBD/JEGUSGS-50004.17 Unspecified NONE
2002008-05-14 09:06PSTYesJBD/JEGUSGS-34704.12 Unspecified NONE
1992008-05-14 09:00PSTYesJBD/JEGUSGS-22804.08 Unspecified NONE
1982008-05-14 08:52PSTYesJBD/JEGUSGS-6334.02 Unspecified NONE
1972008-05-14 08:44PSTYesJBD/JEGUSGS16703.96 Unspecified NONE
1962008-05-14 08:36PSTYesJBD/JEGUSGS31803.91 Unspecified NONE
1952008-05-14 08:27PSTYesJBD/JEGUSGS48803.87 Unspecified NONE
1942008-05-14 08:19PSTYesJBD/JEGUSGS61103.85 Unspecified NONE
1932008-05-14 08:08PSTYesJBD/JEGUSGS76903.83 Unspecified NONE
1922008-05-14 08:00PSTYesJBD/JEGUSGS82503.83 Unspecified NONE
1912008-01-11 10:00PSTYesPSx/CRBUSGS72105.30 Unspecified NONE
1902008-01-11 09:47PSTYesPSx/CRBUSGS68405.38 Unspecified NONE
1892008-01-11 09:36PSTYesPSx/CRBUSGS57205.45 Unspecified NONE
1882008-01-11 09:25PSTYesPSx/CRBUSGS45205.51 Unspecified NONE
1872008-01-11 09:15PSTYesPSx/CRBUSGS35305.57 Unspecified NONE
1862008-01-11 09:05PSTYesPSx/CRBUSGS12405.62 Unspecified NONE
1852007-07-31 18:00PSTYesPSx/JEGUSGS-161006.21 Unspecified NONE
1842007-07-31 17:53PSTYesPSx/JEGUSGS-164006.15 Unspecified NONE
1832007-07-31 17:46PSTYesPSx/JEGUSGS-162006.09 Unspecified NONE
1822007-07-31 17:22PSTYesPSx/JEGUSGS-175005.90 Unspecified NONE
1812007-07-31 16:48PSTYesPSx/JEGUSGS-173005.57 Unspecified NONE
1802007-07-31 16:40PSTYesPSx/JEGUSGS-167005.49 Unspecified NONE
1792007-07-31 16:32PSTYesPSx/JEGUSGS-172005.41 Unspecified NONE
1782007-07-31 16:24PSTYesPSx/JEGUSGS-175005.33 Unspecified NONE
1772007-07-31 16:18PSTYesPSx/JEGUSGS-167005.28 Unspecified NONE
1762007-07-31 16:12PSTYesPSx/JEGUSGS-167005.22 Unspecified NONE
1752007-07-31 16:05PSTYesPSx/JEGUSGS-174005.15 Unspecified NONE
1742007-07-31 15:49PSTYesPSx/JEGUSGS-168004.99 Unspecified NONE
1732007-07-31 15:42PSTYesPSx/JEGUSGS-159004.93 Unspecified NONE
1722007-07-31 15:36PSTYesPSx/JEGUSGS-166004.87 Unspecified NONE
1712007-07-31 15:30PSTYesPSx/JEGUSGS-162004.82 Unspecified NONE
1702007-07-31 15:24PSTYesPSx/JEGUSGS-163004.78 Unspecified NONE
1692007-07-31 15:18PSTYesPSx/JEGUSGS-161004.75 Unspecified NONE
1682007-07-31 15:13PSTYesPSx/JEGUSGS-160004.71 Unspecified NONE
1672007-07-31 15:07PSTYesPSx/JEGUSGS-156004.65 Unspecified NONE
1662007-07-31 15:02PSTYesPSx/JEGUSGS-150004.60 Unspecified NONE
1652007-07-31 14:56PSTYesPSx/JEGUSGS-143004.55 Unspecified NONE
1642007-07-31 14:50PSTYesPSx/JEGUSGS-139004.50 Unspecified NONE
1632007-07-31 14:43PSTYesPSx/JEGUSGS-131004.45 Unspecified NONE
1622007-07-31 14:37PSTYesPSx/JEGUSGS-117004.39 Unspecified NONE
1612007-07-31 14:31PSTYesPSx/JEGUSGS-108004.34 Unspecified NONE
1602007-07-31 14:25PSTYesPSx/JEGUSGS-100004.28 Unspecified NONE
1592007-07-31 14:10PSTYesPSx/JEGUSGS-66004.15 Unspecified NONE
1582007-07-31 14:04PSTYesPSx/JEGUSGS-41704.08 Unspecified NONE
1572007-07-31 13:57PSTYesPSx/JEGUSGS-26804.02 Unspecified NONE
1562007-07-31 13:51PSTYesPSx/JEGUSGS-5873.96 Unspecified NONE
1552007-07-31 13:45PSTYesPSx/JEGUSGS9403.90 Unspecified NONE
1542007-07-31 13:38PSTYesPSx/JEGUSGS26103.86 Unspecified NONE
1532007-07-31 13:32PSTYesPSx/JEGUSGS37503.82 Unspecified NONE
1522007-07-31 13:25PSTYesPSx/JEGUSGS48403.81 Unspecified NONE
1512007-07-31 13:19PSTYesPSx/JEGUSGS57303.81 Unspecified NONE
1502007-07-31 13:08PSTYesPSx/JEGUSGS68403.82 Unspecified NONE
1492007-07-31 13:02PSTYesPSx/JEGUSGS74903.84 Unspecified NONE
1482007-07-31 10:57PSTYesPSx/JEGUSGS116004.73 Unspecified NONE
1472007-07-31 10:50PSTYesPSx/JEGUSGS119004.79 Unspecified NONE
1462007-07-31 10:43PSTYesPSx/JEGUSGS118004.85 Unspecified NONE
1452007-07-31 10:33PSTYesPSx/JEGUSGS118004.96 Unspecified NONE
1442007-07-31 10:23PSTYesPSx/JEGUSGS120005.04 Unspecified NONE
1432007-07-31 10:16PSTYesPSx/JEGUSGS120005.09 Unspecified NONE
1422007-07-31 10:10PSTYesPSx/JEGUSGS118005.16 Unspecified NONE
1412007-07-31 10:04PSTYesPSx/JEGUSGS120005.23 Unspecified NONE
1402007-07-31 07:54PSTYesPSx/JEGUSGS131006.47 Unspecified NONE
1392007-07-31 07:47PSTYesPSx/JEGUSGS129006.54 Unspecified NONE
1382007-07-31 07:40PSTYesPSx/JEGUSGS125006.60 Unspecified NONE
1372007-07-31 07:27PSTYesPSx/JEGUSGS120006.72 Unspecified NONE
1062007-04-03 16:26PSTYes???USGS-149005.17 Unspecified NONE
1052007-04-03 16:19PSTYes???USGS-146005.12 Unspecified NONE
1042007-04-03 16:11PSTYes???USGS-143005.06 Unspecified NONE
1032007-04-03 16:04PSTYes???USGS-150004.99 Unspecified NONE
1022007-04-03 15:54PSTYes???USGS-155004.91 Unspecified NONE
1012007-04-03 15:46PSTYes???USGS-156004.84 Unspecified NONE
1002007-04-03 15:38PSTYes???USGS-157004.77 Unspecified NONE
992007-04-03 15:31PSTYes???USGS-144004.71 Unspecified NONE
982007-04-03 15:23PSTYes???USGS-145004.66 Unspecified NONE
972007-04-03 15:16PSTYes???USGS-145004.60 Unspecified NONE
962007-04-03 15:10PSTYes???USGS-146004.55 Unspecified NONE
952007-04-03 15:03PSTYes???USGS-144004.49 Unspecified NONE
942007-04-03 14:57PSTYes???USGS-147004.43 Unspecified NONE
932007-04-03 14:50PSTYes???USGS-138004.38 Unspecified NONE
922007-04-03 14:44PSTYes???USGS-141004.32 Unspecified NONE
912007-04-03 14:37PSTYes???USGS-139004.28 Unspecified NONE
902007-04-03 14:21PSTYes???USGS-131004.15 Unspecified NONE
892007-04-03 14:14PSTYes???USGS-120004.09 Unspecified NONE
882007-04-03 14:07PSTYes???USGS-111004.04 Unspecified NONE
872007-04-03 14:00PSTYes???USGS-104003.98 Unspecified NONE
862007-04-03 13:53PSTYes???USGS-101003.93 Unspecified NONE
852007-04-03 13:47PSTYes???USGS-86203.88 Unspecified NONE
842007-04-03 13:41PSTYes???USGS-74503.82 Unspecified NONE
832007-04-03 13:35PSTYes???USGS-69403.76 Unspecified NONE
822007-04-03 13:28PSTYes???USGS-52603.72 Unspecified NONE
812007-04-03 13:21PSTYes???USGS-32703.64 Unspecified NONE
802007-04-03 13:15PSTYes???USGS-18403.57 Unspecified NONE
792007-04-03 13:09PSTYes???USGS-7263.52 Unspecified NONE
782007-04-03 13:03PSTYes???USGS12303.47 Unspecified NONE
772007-04-03 12:56PSTYes???USGS23503.42 Unspecified NONE
762007-04-03 12:49PSTYes???USGS33603.38 Unspecified NONE
752007-04-03 12:42PSTYes???USGS47103.35 Unspecified NONE
742007-04-03 12:36PSTYes???USGS55803.34 Unspecified NONE
732007-04-03 12:30PSTYes???USGS60403.32 Unspecified NONE
722007-04-03 12:24PSTYes???USGS65203.32 Unspecified NONE
712007-04-03 12:14PSTYes???USGS72103.34 Unspecified NONE
702007-04-03 12:08PSTYes???USGS77803.36 Unspecified NONE
692007-04-03 12:01PSTYes???USGS83403.38 Unspecified NONE
682007-04-03 11:55PSTYes???USGS81603.41 Unspecified NONE
672007-04-03 11:32PSTYes???USGS92503.52 Unspecified NONE
662007-04-03 11:25PSTYes???USGS91403.56 Unspecified NONE
652007-04-03 11:19PSTYes???USGS95003.60 Unspecified NONE
642007-04-03 11:14PSTYes???USGS95703.64 Unspecified NONE
632007-04-03 11:07PSTYes???USGS100003.68 Unspecified NONE
622007-04-03 11:01PSTYes???USGS98803.73 Unspecified NONE
612007-04-03 10:53PSTYes???USGS102003.79 Unspecified NONE
602007-04-03 10:34PSTYes???USGS105003.93 Unspecified NONE
592007-04-03 10:28PSTYes???USGS108003.97 Unspecified NONE
582007-04-03 10:22PSTYes???USGS106004.02 Unspecified NONE
572007-04-03 10:15PSTYes???USGS108004.07 Unspecified NONE
562007-04-03 10:09PSTYes???USGS106004.12 Unspecified NONE
552007-04-03 10:03PSTYes???USGS107004.16 Unspecified NONE
542007-04-03 09:40PSTYes???USGS108004.36 Unspecified NONE
532007-04-03 09:34PSTYes???USGS111004.43 Unspecified NONE
522007-04-03 09:28PSTYes???USGS109004.48 Unspecified NONE
512007-04-03 09:22PSTYes???USGS114004.53 Unspecified NONE
502007-04-03 09:14PSTYes???USGS113004.59 Unspecified NONE
492007-04-03 09:07PSTYes???USGS118004.65 Unspecified NONE
482007-04-03 08:37PSTYes???USGS122004.92 Unspecified NONE
472007-04-03 08:30PSTYes???USGS124004.99 Unspecified NONE
462007-04-03 08:23PSTYes???USGS123005.05 Unspecified NONE
452007-04-03 08:17PSTYes???USGS126005.10 Unspecified NONE
442007-04-03 08:11PSTYes???USGS122005.15 Unspecified NONE
432007-04-03 08:05PSTYes???USGS123005.21 Unspecified NONE
422007-04-03 07:46PSTYes???USGS114005.37 Unspecified NONE
412007-04-03 07:40PSTYes???USGS115005.43 Unspecified NONE
402007-04-03 07:33PSTYes???USGS113005.47 Unspecified NONE
392007-04-03 07:26PSTYes???USGS113005.52 Unspecified NONE
382007-04-03 07:19PSTYes???USGS105005.59 Unspecified NONE
372007-04-03 07:11PSTYes???USGS104005.65 Unspecified NONE
362007-04-03 07:04PSTYes???USGS96605.69 Unspecified NONE
352007-04-03 06:58PSTYes???USGS93105.73 Unspecified NONE
342007-04-03 06:51PSTYes???USGS84405.78 Unspecified NONE
332007-04-03 06:45PSTYes???USGS72705.82 Unspecified NONE
322007-04-03 06:38PSTYes???USGS61805.86 Unspecified NONE
312007-04-03 06:31PSTYes???USGS46305.92 Unspecified NONE
302006-08-15 15:12PSTYes???USGS20204.64 Unspecified NONE
292006-08-15 15:02PSTYes???USGS30004.64 Unspecified NONE
282006-08-15 14:53PSTYes???USGS37204.65 Unspecified NONE
272006-08-15 14:43PSTYes???USGS45104.68 Unspecified NONE
262006-08-15 14:32PSTYes???USGS51704.73 Unspecified NONE
252006-08-15 14:22PSTYes???USGS53404.77 Unspecified NONE
242006-08-15 14:06PSTYes???USGS61004.84 Unspecified NONE
232006-08-15 13:49PSTYes???USGS65804.95 Unspecified NONE
222006-08-15 13:36PSTYes???USGS70605.03 Unspecified NONE
212006-08-15 13:21PSTYes???USGS71205.13 Unspecified NONE
202006-08-15 13:11PSTYes???USGS74205.19 Unspecified NONE
192006-08-15 12:59PSTYes???USGS71605.28 Unspecified NONE
182006-08-15 12:46PSTYes???USGS74305.37 Unspecified NONE
172006-08-15 12:32PSTYes???USGS71905.46 Unspecified NONE
162006-08-15 12:19PSTYes???USGS73405.54 Unspecified NONE
152006-08-15 12:05PSTYes???USGS64305.63 Unspecified NONE
142006-08-15 11:51PSTYes???USGS54405.72 Unspecified NONE
132006-08-15 11:41PSTYes???USGS45605.77 Unspecified NONE
122006-08-15 11:29PSTYes???USGS29405.84 Unspecified NONE
112006-08-15 11:12PSTYes???USGS6775.95 Unspecified NONE
102006-08-15 10:49PSTYes???USGS-33606.05 Unspecified NONE
92006-08-15 10:35PSTYes???USGS-50906.08 Unspecified NONE
82006-08-15 10:23PSTYes???USGS-62006.09 Unspecified NONE
72006-08-15 10:13PSTYes???USGS-72006.10 Unspecified NONE
62006-08-15 09:59PSTYes???USGS-86006.08 Unspecified NONE
52006-08-15 09:47PSTYes???USGS-93706.05 Unspecified NONE
42006-08-15 09:31PSTYes???USGS-106005.99 Unspecified NONE
32006-08-15 09:20PSTYes???USGS-111005.94 Unspecified NONE
22006-08-15 09:04PSTYes???USGS-120005.84 Unspecified NONE
12006-08-15 08:54PSTYes???USGS-122005.78 Unspecified NONE